[keps] orb10238.amsat
Ray Hoad
ray.hoad at mypbmail.com
Thu Aug 26 19:23:56 PDT 2010
SB KEPS @ AMSAT $ORB10238.O
Orbital Elements 10238.OSCAR
HR AMSAT ORBITAL ELEMENTS FOR OSCAR SATELLITES
FROM WA5QGD FORT WORTH,TX August 26, 2010
Send Subscribe/unsubscribe to KEPS at http://www.amsat.org/mailman/listinfo/keps
BID: ORB10238.O
TO ALL RADIO AMATEURS BT
Satellite: AO-07
Catalog number: 07530
Epoch time: 10237.63411544
Element set: 861
Inclination: 101.4014 deg
RA of node: 250.8064 deg
Eccentricity: 0.0011776
Arg of perigee: 136.4386 deg
Mean anomaly: 223.7615 deg
Mean motion: 12.53579263 rev/day
Decay rate: -2.7e-07 rev/day^2
Epoch rev: 63715
Checksum: 279
Satellite: FO-29
Catalog number: 24278
Epoch time: 10237.91426970
Element set: 0389
Inclination: 098.5164 deg
RA of node: 057.4098 deg
Eccentricity: 0.0349987
Arg of perigee: 303.0867 deg
Mean anomaly: 053.7128 deg
Mean motion: 13.52952598 rev/day
Decay rate: 4.6e-07 rev/day^2
Epoch rev: 69253
Checksum: 359
Satellite: SO-33
Catalog number: 25509
Epoch time: 10237.73353830
Element set: 0782
Inclination: 031.4320 deg
RA of node: 115.2359 deg
Eccentricity: 0.0353899
Arg of perigee: 178.0400 deg
Mean anomaly: 182.1704 deg
Mean motion: 14.28327624 rev/day
Decay rate: 2.37e-06 rev/day^2
Epoch rev: 61800
Checksum: 284
Satellite: RS-22
Catalog number: 27939
Epoch time: 10238.68518352
Element set: 486
Inclination: 097.8818 deg
RA of node: 101.1456 deg
Eccentricity: 0.0013134
Arg of perigee: 192.4727 deg
Mean anomaly: 167.6137 deg
Mean motion: 14.63445706 rev/day
Decay rate: 9.2e-07 rev/day^2
Epoch rev: 36926
Checksum: 326
Satellite: VO-52
Catalog number: 28650
Epoch time: 10238.29493973
Element set: 582
Inclination: 097.6860 deg
RA of node: 288.9717 deg
Eccentricity: 0.0028067
Arg of perigee: 048.9705 deg
Mean anomaly: 311.3954 deg
Mean motion: 14.81793850 rev/day
Decay rate: -2.0e-07 rev/day^2
Epoch rev: 28707
Checksum: 347
Satellite: SO-67
Catalog number: 35870
Epoch time: 10238.88912037
Element set: 47
Inclination: 097.3261 deg
RA of node: 286.1334 deg
Eccentricity: 0.0002338
Arg of perigee: 178.5574 deg
Mean anomaly: 182.4845 deg
Mean motion: 15.21018150 rev/day
Decay rate: 6.59e-06 rev/day^2
Epoch rev: 5220
Checksum: 302
Satellite: HO-68
Catalog number: 36122
Epoch time: 10238.85969708
Element set: 615
Inclination: 100.4630 deg
RA of node: 298.5539 deg
Eccentricity: 0.0007427
Arg of perigee: 172.8070 deg
Mean anomaly: 187.3142 deg
Mean motion: 13.16281530 rev/day
Decay rate: -4.5e-07 rev/day^2
Epoch rev: 3351
Checksum: 295
/EX
SB KEPS @ AMSAT $ORB10238.D
Orbital Elements 10238.MICROS
HR AMSAT ORBITAL ELEMENTS FOR THE MICROSATS
FROM WA5QGD FORT WORTH,TX August 26, 2010
Send Subscribe/unsubscribe to KEPS at http://www.amsat.org/mailman/listinfo/keps
BID: ORB10238.D
TO ALL RADIO AMATEURS BT
Satellite: UO-11
Catalog number: 14781
Epoch time: 10238.34387758
Element set: 323
Inclination: 098.0499 deg
RA of node: 290.2747 deg
Eccentricity: 0.0009458
Arg of perigee: 018.6746 deg
Mean anomaly: 341.4780 deg
Mean motion: 14.79827701 rev/day
Decay rate: -5.0e-08 rev/day^2
Epoch rev: 42218
Checksum: 326
Satellite: AO-16
Catalog number: 20439
Epoch time: 10237.78850355
Element set: 978
Inclination: 098.3378 deg
RA of node: 192.9772 deg
Eccentricity: 0.0010676
Arg of perigee: 325.3615 deg
Mean anomaly: 034.6876 deg
Mean motion: 14.31871407 rev/day
Decay rate: 9.0e-08 rev/day^2
Epoch rev: 7534
Checksum: 333
Satellite: LO-19
Catalog number: 20442
Epoch time: 10237.77506339
Element set: 887
Inclination: 098.2989 deg
RA of node: 198.4861 deg
Eccentricity: 0.0011424
Arg of perigee: 319.1499 deg
Mean anomaly: 040.8834 deg
Mean motion: 14.32101508 rev/day
Decay rate: -1.4e-07 rev/day^2
Epoch rev: 7551
Checksum: 315
Satellite: AO-27
Catalog number: 22825
Epoch time: 10237.38734964
Element set: 0612
Inclination: 098.4898 deg
RA of node: 183.5634 deg
Eccentricity: 0.0009249
Arg of perigee: 068.5472 deg
Mean anomaly: 291.6703 deg
Mean motion: 14.29305146 rev/day
Decay rate: -1.06e-06 rev/day^2
Epoch rev: 88193
Checksum: 336
Satellite: IO-26
Catalog number: 22826
Epoch time: 10237.58038949
Element set: 0348
Inclination: 098.4836 deg
RA of node: 184.3272 deg
Eccentricity: 0.0009896
Arg of perigee: 062.0569 deg
Mean anomaly: 298.1612 deg
Mean motion: 14.29562605 rev/day
Decay rate: -1.0e-08 rev/day^2
Epoch rev: 88207
Checksum: 335
Satellite: GO-32
Catalog number: 25397
Epoch time: 10237.70316501
Element set: 0269
Inclination: 098.3160 deg
RA of node: 241.3323 deg
Eccentricity: 0.0002236
Arg of perigee: 072.7513 deg
Mean anomaly: 287.3918 deg
Mean motion: 14.23183261 rev/day
Decay rate: -6.0e-07 rev/day^2
Epoch rev: 62993
Checksum: 283
Satellite: NO-44
Catalog number: 26931
Epoch time: 10237.74460830
Element set: 541
Inclination: 067.0526 deg
RA of node: 024.7616 deg
Eccentricity: 0.0005152
Arg of perigee: 268.4335 deg
Mean anomaly: 091.6124 deg
Mean motion: 14.29607348 rev/day
Decay rate: -2.22e-06 rev/day^2
Epoch rev: 46469
Checksum: 293
Satellite: SO-50
Catalog number: 27607
Epoch time: 10237.73422516
Element set: 253
Inclination: 064.5583 deg
RA of node: 145.2736 deg
Eccentricity: 0.0038915
Arg of perigee: 045.5787 deg
Mean anomaly: 314.8487 deg
Mean motion: 14.71567862 rev/day
Decay rate: 6.0e-08 rev/day^2
Epoch rev: 41261
Checksum: 315
Satellite: CO-55
Catalog number: 27844
Epoch time: 10238.52170270
Element set: 921
Inclination: 098.7111 deg
RA of node: 246.4912 deg
Eccentricity: 0.0009778
Arg of perigee: 334.7334 deg
Mean anomaly: 025.3364 deg
Mean motion: 14.20725340 rev/day
Decay rate: 4.9e-07 rev/day^2
Epoch rev: 37107
Checksum: 291
Satellite: CO-57
Catalog number: 27848
Epoch time: 10237.57547667
Element set: 868
Inclination: 098.7164 deg
RA of node: 244.6655 deg
Eccentricity: 0.0009948
Arg of perigee: 341.3497 deg
Mean anomaly: 018.7311 deg
Mean motion: 14.20516514 rev/day
Decay rate: 3.9e-07 rev/day^2
Epoch rev: 37089
Checksum: 351
Satellite: AO-51
Catalog number: 28375
Epoch time: 10237.53086963
Element set: 0758
Inclination: 098.0674 deg
RA of node: 227.0973 deg
Eccentricity: 0.0082864
Arg of perigee: 247.2928 deg
Mean anomaly: 111.9490 deg
Mean motion: 14.40695870 rev/day
Decay rate: 2.6e-07 rev/day^2
Epoch rev: 32349
Checksum: 339
Satellite: GENESAT1
Catalog number: 29655
Epoch time: 10216.61700559
Element set: 226
Inclination: 040.0059 deg
RA of node: 067.3006 deg
Eccentricity: 0.0005079
Arg of perigee: 297.8744 deg
Mean anomaly: 064.7087 deg
Mean motion: 16.44862838 rev/day
Decay rate: 1.0637092e-01 rev/day^2
Epoch rev: 20777
Checksum: 320
Satellite: CP3
Catalog number: 31129
Epoch time: 10237.66511142
Element set: 0662
Inclination: 097.9342 deg
RA of node: 273.5010 deg
Eccentricity: 0.0102906
Arg of perigee: 019.1189 deg
Mean anomaly: 341.3815 deg
Mean motion: 14.52296056 rev/day
Decay rate: 4.47e-06 rev/day^2
Epoch rev: 17794
Checksum: 288
Satellite: CO-65
Catalog number: 32785
Epoch time: 10238.66805290
Element set: 767
Inclination: 097.8914 deg
RA of node: 302.5997 deg
Eccentricity: 0.0015947
Arg of perigee: 057.7690 deg
Mean anomaly: 302.5080 deg
Mean motion: 14.81701655 rev/day
Decay rate: -2.6e-07 rev/day^2
Epoch rev: 12592
Checksum: 334
Satellite: KKS-1
Catalog number: 33493
Epoch time: 10238.85556688
Element set: 794
Inclination: 098.0921 deg
RA of node: 358.9790 deg
Eccentricity: 0.0018606
Arg of perigee: 273.0474 deg
Mean anomaly: 086.8621 deg
Mean motion: 14.81074751 rev/day
Decay rate: 3.89e-06 rev/day^2
Epoch rev: 8594
Checksum: 351
Satellite: SOHLA-1
Catalog number: 33496
Epoch time: 10237.74995306
Element set: 0187
Inclination: 098.0638 deg
RA of node: 345.9397 deg
Eccentricity: 0.0006431
Arg of perigee: 352.1087 deg
Mean anomaly: 008.0027 deg
Mean motion: 14.69510922 rev/day
Decay rate: 9.1e-07 rev/day^2
Epoch rev: 08509
Checksum: 311
Satellite: TISAT-1
Catalog number: 36799
Epoch time: 10238.69839207
Element set: 64
Inclination: 098.1422 deg
RA of node: 298.5007 deg
Eccentricity: 0.0016303
Arg of perigee: 144.2244 deg
Mean anomaly: 216.0002 deg
Mean motion: 14.80150357 rev/day
Decay rate: 2.79e-06 rev/day^2
Epoch rev: 674
Checksum: 284
Satellite: STUDSAT
Catalog number: 36801
Epoch time: 10237.90438441
Element set: 0078
Inclination: 098.1453 deg
RA of node: 297.6512 deg
Eccentricity: 0.0014774
Arg of perigee: 134.7555 deg
Mean anomaly: 225.4857 deg
Mean motion: 14.79605380 rev/day
Decay rate: 8.01e-06 rev/day^2
Epoch rev: 00662
Checksum: 302
/EX
SB KEPS @ AMSAT $ORB10238.W
Orbital Elements 10238.WEATHER
HR AMSAT ORBITAL ELEMENTS FOR WEATHER SATELLITES
FROM WA5QGD FORT WORTH,TX August 26, 2010
Send Subscribe/unsubscribe to KEPS at http://www.amsat.org/mailman/listinfo/keps
BID: ORB10238.W
TO ALL RADIO AMATEURS BT
Satellite: NOAA-10
Catalog number: 16969
Epoch time: 10237.68843933
Element set: 0180
Inclination: 098.6534 deg
RA of node: 265.9919 deg
Eccentricity: 0.0012633
Arg of perigee: 012.8942 deg
Mean anomaly: 347.2570 deg
Mean motion: 14.27425069 rev/day
Decay rate: 5.4e-07 rev/day^2
Epoch rev: 24549
Checksum: 327
Satellite: NOAA-11
Catalog number: 19531
Epoch time: 10237.82326346
Element set: 0192
Inclination: 098.7689 deg
RA of node: 325.6596 deg
Eccentricity: 0.0011042
Arg of perigee: 313.3440 deg
Mean anomaly: 046.6808 deg
Mean motion: 14.14932081 rev/day
Decay rate: -2.21e-06 rev/day^2
Epoch rev: 13098
Checksum: 291
Satellite: NOAA-12
Catalog number: 21263
Epoch time: 10237.90280404
Element set: 0683
Inclination: 098.7649 deg
RA of node: 251.0552 deg
Eccentricity: 0.0011941
Arg of perigee: 328.5880 deg
Mean anomaly: 031.4574 deg
Mean motion: 14.25650221 rev/day
Decay rate: 2.5e-07 rev/day^2
Epoch rev: 00233
Checksum: 265
Satellite: MET-3/5
Catalog number: 21655
Epoch time: 10237.61573699
Element set: 0898
Inclination: 082.5539 deg
RA of node: 259.5805 deg
Eccentricity: 0.0013588
Arg of perigee: 169.8507 deg
Mean anomaly: 190.2850 deg
Mean motion: 13.17025045 rev/day
Decay rate: 5.1e-07 rev/day^2
Epoch rev: 91481
Checksum: 331
